Date,TemperatureHighF,TemperatureAvgF,TemperatureLowF,DewpointHighF,DewpointAvgF,DewpointLowF,HumidityHigh,HumidityAvg,HumidityLow,PressureMaxIn,PressureMinIn,WindSpeedMaxMPH,WindSpeedAvgMPH,GustSpeedMaxMPH,PrecipitationSumIn
2013-2-1,89,75,65,78,70,64,99,86,51,29.71,29.55,25,6,33,0.65
2013-2-2,71,64,61,66,59,54,99,83,62,29.93,29.63,18,8,24,0.48
2013-2-3,80,67,56,59,55,50,91,66,40,30.05,29.87,15,6,21,0.00
2013-2-4,84,72,59,65,61,59,99,73,47,30.21,30.03,18,6,21,0.00
2013-2-5,85,72,61,65,62,60,99,74,46,30.22,30.10,16,6,21,0.00
2013-2-6,87,73,62,68,62,57,99,71,36,30.15,29.98,13,5,19,0.00
2013-2-7,90,76,58,66,61,57,99,66,35,30.05,29.91,12,4,14,0.00
2013-2-8,100,79,60,68,62,55,98,62,25,30.05,29.91,10,4,15,0.00
2013-2-9,101,81,63,71,65,60,99,64,26,30.02,29.82,10,3,14,0.00
2013-2-10,101,81,67,74,68,60,99,70,27,30.09,29.82,19,7,25,1.26
2013-2-11,81,71,65,73,68,65,99,88,65,30.09,29.99,14,6,17,0.11
2013-2-12,82,71,67,71,67,63,98,86,63,30.14,30.00,18,8,22,0.00
2013-2-13,82,72,64,68,62,57,99,75,44,30.19,30.09,15,6,24,0.00
2013-2-14,85,72,58,65,61,58,99,72,45,30.15,30.03,14,5,18,0.00
2013-2-15,82,72,62,69,64,60,99,79,49,30.13,30.03,17,7,23,0.00
2013-2-16,85,72,63,69,64,61,99,79,48,30.14,30.03,17,6,23,0.00
2013-2-17,85,72,60,69,63,58,99,75,43,30.13,30.03,19,6,23,0.00
2013-2-18,87,76,60,69,64,59,99,67,46,30.07,29.91,19,10,23,0.00
2013-2-19,91,75,62,70,66,61,99,75,39,29.96,29.83,13,5,17,0.00
2013-2-20,86,75,66,74,67,64,99,80,48,30.01,29.88,18,8,24,0.01
2013-2-21,85,74,66,74,68,63,99,84,51,30.01,29.93,20,8,27,0.37
2013-2-22,81,70,65,70,67,64,99,91,57,29.99,29.90,26,11,35,0.50
2013-2-23,77,70,66,76,70,65,99,99,95,29.90,29.61,24,15,30,2.15
2013-2-24,95,78,67,78,71,67,99,81,47,29.89,29.72,21,3,27,0.18
2013-2-25,94,79,68,76,72,68,99,82,53,29.99,29.88,13,5,17,0.00
2013-2-26,89,78,70,72,70,67,99,78,50,30.01,29.89,12,6,16,0.00
2013-2-27,96,79,67,72,68,65,99,71,40,29.95,29.76,7,3,8,0.00
2013-2-28,88,77,65,74,69,64,99,80,50,29.81,29.64,14,6,20,0.37